Wind_Speed
27 26 25 24 23 22 21 21 20 19 18 17 16 15 14 13 12 11 11 10 9 9 10 10 10 9 9 9 9 10 11 11 11 11 12 13 14 15 15 16 17 18 19
28 27 26 25 25 24 23 22 21 20 19 18 17 16 15 14 13 12 12 11 11 11 10 10 10 10 10 10 10 11 11 11 11 12 13 14 15 16 16 17 18 19 20
28 27 27 27 26 25 25 24 23 22 20 19 18 17 16 15 14 14 13 12 12 12 11 11 11 10 10 10 11 11 11 12 12 13 14 15 16 17 18 19 20 21 22
29 29 28 28 27 27 26 25 24 23 22 21 20 18 17 16 16 15 14 13 13 13 12 12 11 11 11 11 11 11 11 12 13 14 15 16 17 18 19 20 21 22 23
30 30 29 29 28 28 27 26 25 24 23 22 21 20 18 17 16 15 15 14 14 13 13 12 12 11 11 11 11 11 12 13 14 16 17 18 19 19 20 22 23 24 25
31 30 30 30 30 29 28 27 26 25 24 23 22 21 19 18 17 17 16 15 15 14 14 13 12 12 12 12 12 12 13 14 16 17 18 19 20 20 22 23 24 25 26
32 32 31 31 31 30 30 29 28 26 25 25 23 22 21 19 18 18 17 16 16 15 15 14 13 13 12 12 13 13 14 15 17 18 19 20 21 22 23 24 26 27 28
33 33 32 32 32 32 31 30 29 28 27 26 24 23 22 20 19 19 18 17 17 16 15 14 14 13 13 13 13 14 15 16 18 19 20 21 22 23 25 26 27 29 30
34 34 33 33 32 32 32 31 31 29 28 27 25 24 23 21 20 19 19 18 17 17 16 15 15 14 14 14 14 15 17 18 19 20 21 22 23 24 26 27 29 30 31
36 35 35 34 33 32 32 32 32 31 29 28 26 25 24 22 21 21 20 19 18 18 17 16 16 15 15 15 16 17 18 19 20 21 22 23 25 26 27 28 30 31 32
36 36 35 35 34 33 33 33 32 32 31 29 27 26 25 24 23 22 21 20 19 19 18 17 16 16 16 16 17 18 19 20 21 22 23 24 26 27 28 29 30 32 33
37 36 35 35 35 34 34 33 33 32 32 31 29 28 26 25 24 23 22 21 20 19 18 18 17 17 17 17 18 19 20 21 22 23 24 26 27 28 29 30 31 32 33
38 37 36 36 35 35 34 34 34 33 32 32 30 29 28 26 25 24 22 22 21 20 19 19 18 18 18 18 19 20 21 22 23 25 26 27 28 29 30 31 32 33 34
38 37 37 36 35 35 35 34 34 34 33 32 32 30 28 27 26 24 23 23 22 21 20 19 19 19 19 19 20 21 22 24 25 26 27 28 29 30 31 32 33 34 35
40 38 37 36 35 35 35 35 34 34 33 33 32 31 29 28 27 25 24 24 22 21 21 20 20 20 20 20 21 23 24 25 26 27 28 29 30 31 32 33 34 35 35
41 39 38 37 36 35 35 34 34 34 33 33 33 32 30 29 28 26 26 25 23 22 21 21 21 21 21 22 23 24 25 26 27 28 29 30 31 32 33 34 35 35 36
42 41 40 38 37 36 35 34 34 34 34 33 33 32 31 30 28 27 27 26 24 23 23 22 22 22 23 23 24 25 27 28 28 29 30 31 32 33 34 35 35 36 37
45 43 42 40 39 37 36 35 34 34 34 34 33 32 31 30 29 28 28 27 25 24 24 23 23 24 24 25 26 27 28 29 29 30 31 32 33 34 35 35 36 37 37
47 45 44 42 40 39 37 36 35 35 35 34 34 33 32 31 30 29 28 27 26 25 25 25 25 25 26 26 27 28 29 30 30 31 32 33 34 34 35 36 37 37 38
48 47 46 44 42 41 39 38 36 36 35 35 34 33 32 32 30 30 29 28 27 26 26 26 26 27 27 27 28 29 30 30 31 32 32 34 34 35 36 37 37 38 38
51 49 47 46 44 42 41 39 37 36 36 35 34 34 33 32 31 30 29 28 27 27 27 27 27 28 28 28 29 30 30 30 31 32 33 34 35 36 37 37 38 38 39
53 50 49 47 45 43 41 39 38 38 37 36 35 34 33 32 31 31 30 29 28 28 28 28 28 28 29 29 30 31 31 31 32 33 34 35 35 36 37 38 38 39 39
54 52 50 48 46 44 42 41 41 40 38 37 35 34 34 33 32 31 30 30 30 29 29 29 29 30 30 31 31 31 32 32 33 34 35 35 36 37 37 38 38 39 40
55 53 51 49 47 45 44 43 41 39 37 36 36 35 35 34 33 32 31 31 31 31 31 31 31 31 31 31 32 32 33 33 34 34 35 36 36 37 38 38 39 39 40
55 54 52 50 49 47 45 43 41 40 38 37 37 36 35 35 34 33 33 33 32 32 32 32 31 32 32 32 32 33 33 34 35 35 35 36 37 37 38 38 39 39 40
56 56 53 52 50 48 46 44 42 40 39 38 37 37 36 35 35 34 34 34 33 33 33 32 32 32 33 33 34 34 34 35 35 35 36 36 37 38 38 39 39 40 41
Wind_Direction
228 228 227 227 226 226 226 226 227 227 228 229 229 230 233 236 239 242 246 254 261 270 279 286 291 292 294 299 304 306 306 307 309 312 315 316 318 318 318 318 318 318 317
228 229 228 227 226 227 227 228 228 229 229 229 230 232 234 237 241 245 249 255 263 270 278 284 289 288 291 296 300 301 301 303 307 311 314 316 318 318 318 318 318 318 318
229 229 229 228 227 227 228 228 229 229 229 229 231 233 235 238 241 246 249 255 262 269 274 280 283 285 289 294 299 299 299 303 307 312 315 316 317 318 318 318 319 319 318
230 228 228 227 227 228 229 229 230 230 230 229 231 233 235 238 242 245 249 255 261 267 272 277 280 283 288 293 297 298 299 303 309 313 315 317 317 317 318 319 319 319 317
230 228 227 227 227 227 228 230 231 231 230 230 231 233 235 238 242 244 249 254 259 264 269 275 277 281 286 292 295 295 298 302 308 312 314 316 316 317 318 318 318 318 317
229 228 227 227 227 227 228 230 231 231 230 229 231 233 235 237 240 244 248 252 257 261 267 272 275 279 283 290 292 293 297 302 308 311 314 315 315 316 317 317 317 316 316
228 227 227 227 227 228 228 229 230 230 230 230 231 233 234 236 239 242 247 251 255 259 265 270 274 277 281 288 291 293 298 303 308 310 312 314 314 315 315 315 315 315 315
227 227 226 227 228 229 228 229 229 229 229 230 230 232 233 235 237 241 245 249 253 257 263 269 272 275 280 286 289 293 298 303 307 310 312 314 314 315 316 316 316 315 315
227 226 226 227 228 229 229 229 229 228 228 229 229 230 232 234 237 240 244 248 252 256 262 267 269 274 279 285 289 293 298 303 307 311 313 314 315 316 316 317 317 316 316
227 226 226 227 228 228 229 229 229 227 227 227 228 229 231 233 236 239 243 247 251 256 261 265 267 272 278 285 289 293 298 303 308 310 312 314 315 316 317 317 317 317 317
228 227 226 227 227 227 228 229 228 226 226 226 227 229 230 233 236 239 243 247 251 255 259 263 266 271 278 284 289 293 298 302 306 309 312 314 315 317 318 318 318 318 318
228 228 227 227 227 227 227 228 227 226 226 226 227 229 230 232 235 239 244 247 250 254 258 262 265 271 277 283 289 293 297 302 306 309 312 314 315 316 317 318 318 318 318
226 226 226 226 227 227 227 227 226 225 225 226 227 227 229 232 235 239 242 246 249 253 257 261 266 272 278 284 289 294 297 301 305 309 311 313 314 316 317 317 318 318 318
224 225 225 225 225 225 225 225 225 224 224 225 226 227 228 232 235 238 242 245 248 251 256 260 266 272 278 284 289 294 298 301 305 308 310 312 314 315 316 317 317 318 318
223 223 224 224 224 224 224 224 224 223 224 225 226 227 228 231 234 238 242 244 247 250 254 260 267 272 278 284 290 294 298 301 304 307 310 311 313 314 315 316 316 317 317
222 223 223 224 224 223 223 223 223 223 224 225 226 227 229 231 235 238 241 243 246 249 254 260 267 274 279 284 289 294 297 300 303 306 308 310 312 313 314 315 316 316 316
221 222 223 224 224 223 223 223 223 223 224 225 225 226 228 232 235 239 240 243 245 249 255 261 268 275 280 284 288 293 297 300 302 305 307 309 311 312 313 314 315 315 316
221 221 221 223 224 224 224 223 223 223 224 224 225 226 229 232 236 239 241 243 245 250 256 262 269 276 280 283 288 292 296 299 301 303 306 308 310 311 312 313 314 315 315
221 221 221 222 223 224 224 223 223 223 224 224 225 228 230 233 237 239 241 243 246 251 258 264 270 276 279 283 287 291 295 297 300 303 304 307 308 310 311 312 313 314 315
221 221 221 221 223 224 224 224 224 224 225 225 227 229 231 234 237 239 241 243 248 253 259 265 271 275 279 283 287 291 294 296 299 302 304 306 307 309 311 311 312 313 314
220 221 221 221 222 224 224 225 225 226 226 227 228 230 232 234 236 239 242 244 249 254 260 265 271 275 279 283 286 290 293 296 299 301 303 304 306 308 309 310 311 312 313
220 221 221 222 222 224 225 225 226 226 226 227 228 229 232 234 237 240 243 246 250 255 261 266 271 274 278 282 286 289 292 295 298 300 302 303 305 307 308 309 310 311 312
220 220 221 222 222 223 225 225 226 226 226 227 229 230 233 235 238 241 244 247 252 257 261 266 272 275 278 282 285 288 291 294 297 299 301 303 304 306 307 308 309 310 311
220 221 221 222 223 223 224 225 226 227 228 229 230 232 234 236 239 242 245 249 253 258 262 267 272 275 278 281 284 287 290 293 296 298 300 302 304 305 306 307 308 309 310
220 221 222 222 222 223 224 224 226 227 228 228 230 232 234 236 240 243 247 250 254 257 262 268 272 275 278 280 283 287 290 293 295 296 299 301 303 304 305 306 307 308 308
220 221 221 222 222 223 224 224 225 227 229 230 232 234 236 238 241 244 247 251 254 258 262 267 272 275 276 279 283 286 289 292 294 295 298 300 302 303 304 305 306 307 307
Height
5852 5854 5856 5859 5861 5863 5865 5867 5869 5870 5872 5873 5875 5876 5878 5879 5880 5881 5881 5882 5882 5882 5882 5881 5881 5881 5880 5880 5880 5879 5877 5876 5875 5874 5873 5872 5871 5869 5868 5866 5865 5863 5861
5848 5850 5853 5855 5858 5860 5862 5864 5866 5868 5869 5871 5873 5874 5876 5877 5878 5879 5880 5880 5880 5880 5880 5880 5879 5879 5879 5879 5878 5877 5876 5875 5874 5873 5872 5871 5869 5867 5866 5864 5863 5861 5859
5844 5846 5849 5851 5854 5856 5859 5861 5863 5865 5867 5869 5870 5872 5874 5875 5876 5877 5878 5878 5878 5878 5878 5878 5878 5878 5877 5877 5876 5875 5874 5873 5872 5871 5870 5869 5867 5865 5864 5862 5860 5858 5856
5839 5842 5844 5847 5850 5852 5855 5857 5860 5862 5864 5866 5868 5869 5871 5873 5874 5875 5876 5876 5876 5876 5876 5876 5876 5876 5876 5875 5875 5874 5872 5871 5870 5869 5868 5867 5865 5863 5861 5859 5857 5855 5853
5834 5837 5840 5842 5845 5848 5851 5854 5856 5858 5860 5863 5865 5867 5868 5870 5872 5873 5873 5874 5874 5874 5874 5874 5874 5874 5874 5873 5873 5872 5871 5869 5868 5867 5866 5864 5862 5860 5858 5856 5854 5852 5849
5828 5831 5835 5838 5841 5844 5847 5849 5852 5855 5857 5859 5861 5863 5865 5867 5869 5870 5871 5871 5872 5872 5872 5872 5872 5872 5872 5871 5870 5870 5868 5867 5866 5865 5863 5861 5860 5858 5855 5853 5851 5848 5846
5822 5826 5829 5832 5836 5839 5842 5845 5848 5851 5853 5856 5858 5860 5862 5864 5866 5867 5868 5869 5869 5869 5870 5869 5870 5869 5869 5869 5868 5867 5866 5865 5864 5862 5860 5859 5857 5855 5852 5850 5847 5844 5842
5816 5820 5823 5827 5830 5834 5837 5840 5843 5846 5849 5852 5854 5856 5859 5861 5862 5864 5865 5866 5866 5867 5867 5867 5867 5867 5867 5866 5866 5865 5863 5862 5861 5859 5857 5855 5853 5851 5848 5846 5843 5840 5837
5810 5814 5817 5821 5825 5828 5832 5835 5838 5841 5845 5848 5850 5853 5855 5857 5859 5860 5861 5862 5863 5864 5864 5864 5864 5864 5864 5863 5863 5862 5860 5859 5858 5856 5854 5852 5850 5847 5845 5842 5839 5836 5833
5803 5808 5812 5815 5819 5823 5826 5830 5833 5836 5840 5843 5846 5849 5851 5853 5855 5857 5858 5859 5860 5860 5861 5861 5861 5861 5861 5860 5860 5858 5857 5856 5854 5852 5850 5848 5846 5843 5840 5837 5834 5831 5828
5797 5801 5806 5809 5813 5817 5821 5824 5828 5831 5835 5838 5841 5844 5847 5849 5851 5853 5854 5855 5856 5857 5857 5857 5858 5858 5858 5857 5856 5855 5854 5852 5850 5849 5847 5844 5842 5839 5836 5833 5830 5826 5823
5791 5795 5799 5803 5807 5811 5815 5819 5822 5826 5830 5833 5836 5839 5842 5845 5847 5849 5850 5851 5852 5853 5854 5854 5854 5854 5854 5854 5853 5851 5850 5848 5847 5845 5842 5840 5837 5834 5831 5828 5825 5821 5818
5784 5788 5792 5797 5801 5805 5809 5813 5817 5821 5824 5828 5831 5834 5838 5840 5843 5845 5846 5847 5848 5849 5850 5850 5850 5850 5850 5850 5849 5847 5846 5844 5842 5840 5838 5835 5833 5830 5826 5823 5819 5816 5812
5777 5782 5786 5790 5794 5799 5803 5807 5811 5815 5819 5823 5826 5829 5833 5835 5838 5840 5841 5843 5844 5845 5846 5846 5846 5846 5846 5846 5844 5843 5842 5840 5838 5836 5833 5831 5828 5825 5821 5818 5814 5811 5807
5770 5775 5779 5784 5788 5792 5797 5801 5805 5809 5813 5817 5821 5824 5827 5830 5833 5835 5837 5838 5840 5841 5841 5842 5842 5842 5842 5841 5840 5839 5837 5835 5833 5831 5828 5826 5823 5820 5816 5813 5809 5805 5801
5763 5768 5773 5777 5781 5786 5790 5795 5799 5803 5807 5811 5815 5819 5822 5825 5827 5830 5832 5833 5835 5836 5837 5837 5838 5838 5837 5837 5835 5834 5832 5830 5828 5826 5823 5820 5817 5814 5811 5807 5803 5799 5795
5755 5760 5765 5770 5775 5780 5784 5789 5793 5797 5801 5806 5809 5813 5816 5819 5822 5824 5827 5828 5830 5831 5832 5833 5833 5833 5832 5832 5831 5829 5827 5825 5823 5820 5818 5815 5812 5808 5805 5801 5797 5793 5789
5746 5752 5758 5763 5768 5773 5778 5782 5787 5791 5796 5800 5804 5807 5811 5814 5817 5819 5821 5823 5825 5826 5827 5828 5828 5828 5827 5826 5825 5824 5822 5820 5817 5815 5812 5809 5806 5803 5799 5795 5791 5787 5782
5738 5744 5750 5756 5762 5767 5772 5776 5781 5785 5789 5794 5798 5802 5805 5808 5811 5813 5816 5818 5819 5821 5822 5823 5823 5822 5822 5821 5820 5818 5816 5814 5812 5809 5806 5803 5800 5796 5793 5789 5784 5780 5776
5729 5735 5742 5748 5754 5759 5764 5769 5774 5779 5783 5787 5792 5795 5799 5802 5805 5808 5810 5812 5814 5815 5816 5817 5817 5817 5816 5815 5814 5812 5811 5808 5806 5803 5800 5797 5793 5790 5786 5782 5778 5773 5769
5719 5726 5733 5740 5746 5752 5758 5763 5768 5773 5777 5781 5786 5789 5793 5796 5799 5802 5804 5806 5808 5810 5810 5811 5811 5811 5810 5809 5808 5806 5804 5802 5800 5797 5794 5790 5787 5783 5779 5775 5771 5766 5762
5709 5717 5725 5732 5738 5745 5751 5757 5762 5766 5770 5774 5778 5782 5786 5790 5793 5796 5798 5800 5802 5803 5804 5805 5805 5804 5804 5803 5802 5800 5798 5796 5793 5790 5787 5784 5780 5776 5772 5768 5764 5760 5755
5699 5708 5716 5723 5731 5737 5743 5748 5753 5758 5763 5768 5772 5776 5780 5783 5786 5789 5792 5794 5795 5797 5798 5798 5798 5798 5797 5796 5795 5794 5791 5789 5787 5784 5780 5777 5773 5770 5765 5761 5757 5752 5748
5691 5699 5707 5715 5722 5729 5734 5740 5746 5752 5758 5762 5766 5770 5773 5777 5780 5783 5785 5787 5789 5790 5791 5791 5791 5791 5790 5789 5788 5786 5785 5782 5780 5777 5774 5770 5766 5762 5758 5754 5750 5745 5741
5681 5689 5697 5705 5712 5720 5726 5733 5739 5745 5750 5754 5758 5762 5766 5769 5773 5776 5778 5780 5782 5783 5784 5784 5784 5784 5783 5782 5781 5779 5777 5775 5773 5770 5767 5763 5759 5755 5751 5747 5742 5738 5733
5669 5678 5687 5695 5703 5710 5717 5724 5731 5737 5742 5747 5751 5755 5758 5762 5765 5768 5771 5773 5774 5776 5777 5777 5777 5776 5776 5775 5774 5772 5770 5768 5765 5763 5760 5756 5752 5748 5744 5739 5735 5730 5725